Regional Weather Roundup
Issued by NWS Lake Charles, LA

Home | Current Version | Previous Version | Text Only | Print | Product List | Glossary On
Versions: 1 2 3 4 5 6 7 8 9 10 11 12 13 14 15 16 17 18 19 20 21 22 23 24 25 26 27 28 29 30 31 32 33 34 35 36 37 38 39 40 41 42 43 44 45 46 47 48 49 50
000
ASUS44 KLCH 280110
RWRLCH
RWRLCH
REGIONAL WEATHER ROUNDUP
NATIONAL WEATHER SERVICE LAKE CHARLES LA
700 PM CST THU NOV 27 2014

Note: "fair" indicates few or no clouds below 12,000 feet with no
significant weather and/or obstructions to visibility.


ACROSS SOUTHEAST TEXAS

CITY           SKY/WX    TMP DP  RH WIND       PRES   REMARKS
BEAUMONT       CLEAR     50  39  66 NE5       30.43R
BEAUMONT CITY    N/A     48  39  69 CALM      30.43S
ORANGE         CLEAR     47  40  77 CALM      30.45R
JASPER         CLEAR     44  38  79 CALM      30.47R
$$

ACROSS CENTRAL LOUISIANA

CITY           SKY/WX    TMP DP  RH WIND       PRES   REMARKS
LEESVILLE      CLEAR     45  38  78 NE3       30.44R
FULLERTON        N/A     44  35  70 CALM      30.43R
ALEXANDRIA INT CLEAR     47  32  56 NE6       30.45R
ESLER FIELD    CLEAR     40  35  83 CALM      30.47R
DERIDDER         N/A     47  37  70 CALM      30.46R
OAKDALE        CLEAR     40  38  92 CALM      30.46R
OPELOUSAS        N/A     46  33  60 N3        30.46R
$$

ACROSS SOUTHWEST AND SOUTH CENTRAL LOUISIANA

CITY           SKY/WX    TMP DP  RH WIND       PRES   REMARKS
SULPHUR        CLEAR     55  34  45 NE3       30.45R
LAKE CHARLES   CLEAR     50  35  56 NE7       30.44R
CHENNAULT INT  CLEAR     54  34  47 NE5       30.45R
CAMERON PHI    CLEAR     52  41  66 E6        30.46R
DEQUINCY         N/A     44  40  85 CALM      30.44R
JENNINGS         N/A     47  38  69 E6        30.45R
LAFAYETTE      CLEAR     49  32  52 N8        30.45R
NEW IBERIA     CLEAR     48  34  58 N8        30.45R
ABBEVILLE        N/A     47  32  55 N7        30.45R
PATTERSON      CLEAR     46  37  71 N6          N/A
SALT POINT       N/A     55  38  52 CALM      30.42R
$$

SELECTED SITES ACROSS THE REGION

CITY           SKY/WX    TMP DP  RH WIND       PRES   REMARKS
HOUSTON BUSH   CLEAR     50  40  68 CALM      30.42R
HOUSTON HOBBY  CLEAR     53  40  61 CALM      30.42R
GALVESTON      CLEAR     54  42  64 SE5       30.43S
COLLEGE STAT   PTCLDY    52  34  50 CALM      30.41S
CONROE         CLEAR     47  41  80 CALM      30.43R
HUNTSVILLE     CLEAR     49  37  63 CALM      30.41S
LUFKIN         CLEAR     47  38  71 E3        30.43R
SHREVEPORT     CLEAR     45  33  63 CALM      30.44S
MONROE         CLEAR     40  34  79 E3        30.49R
NATCHEZ MS     CLEAR     43  30  61 N3        30.46S
BATON ROUGE    CLEAR     48  30  49 CALM      30.44R
N.O. INTL ARPT CLEAR     54  33  45 N13       30.43R
SLIDELL        CLEAR     44  36  73 CALM      30.43R
$$

MARINE REPORTS

STATION/POSITION TIME  TEMP    WIND        PRES    VSBY  WAVE
                       AIR SEA DIR/SP/G                  HT/PER
                 (UTC) (F)     (DEG/KT/KT) (MB)    (MI)  (FT/S)
BUOY 30 S HIGH I 0100   58 61  110/  6/  8 1030.1R         1/ 4
SEA RIM ST PARK  0100   58     150/  4/  4 1031.0R
PORT ARTHUR      0100      59     CALM     1030.4S
SABINE PASS N    0100   54 58     CALM     1030.2R
TEXAS POINT      NOT AVBL
CALCASIEU PASS   0100   55 60   80/  6/  7   N/A
LK CHARLES BEACH 0100   54 60              1030.9R
MARSH ISLAND     NOT AVBL
FRESH WATER LOCK 0100   50 59  330/  8/  9 1030.5R
AMERADA PASS     0100   54 55   30/  2/  4 1030.2R
$$


USA.gov is the U.S. government's official web portal to all federal, state and local government web resources and services.